User: anonymous   Login
Location: Camp Creek
(33.9000°N, 111.8167°W)
Time: 05:29:47
(UTC-07:00)
Language:

Cosmos 1656 - Orbit

View from above orbital plane
View from above orbital plane
View from above satellite
View from above satellite

Ground track
Ground track

The orbit data is extracted from the following two-line orbital elements,

1 15755U 85042A   15215.93612370  .00000105  00000-0  70602-4 0  9992
2 15755 071.1127 002.7139 0034368 029.5433 330.7626 14.20368890563671
Epoch (UTC): 03 August 2015 22:28:01
Eccentricity: 0.0034368
inclination: 71.1127°
perigee height: 799 km
apogee height: 849 km
right ascension of ascending node: 2.7139°
argument of perigee: 29.5433°
revolutions per day: 14.20368890
mean anomaly at epoch: 330.7626°
orbit number at epoch: 56367

The dashed part of the orbit path shows where the satellite is in the earth's shadow,  

DLR